Location: Caillavet
(43.7118°N, 0.3324°E)
Time: 11:00:49
(UTC+00:00)

Daily predictions for brighter satellites

Satellite Brightness Start Highest point End
(mag) Time Altitude Azimuth Time Altitude Azimuth Time Altitude Azimuth
USA 229 DEB 4.1 17:26:01 10° NNW 17:33:08 53° NE 17:40:36 10° ESE
USA 229 4.1 17:26:08 10° NNW 17:33:14 53° NE 17:40:43 10° ESE
CZ-3B R/B 2.6 17:31:55 10° NNW 17:34:20 32° NE 17:40:08 10° ESE
SJ 16-02 2.3 17:31:10 10° SW 17:35:26 50° WNW 17:39:44 10° N
SeaSat 1 3.9 17:31:36 10° N 17:36:03 34° NW 17:40:28 10° WSW
FengYun 1-2 T 4.3 17:32:22 10° SSE 17:37:57 84° ENE 17:43:37 10° NNW
Cosmos 158 Rocket 4.4 17:32:35 10° NNW 17:37:58 75° WSW 17:43:20 10° SSE
Cosmos 2112 Rocket 4.0 17:33:10 10° NNW 17:38:23 66° ENE 17:43:32 10° SSE
Cosmos 990 Rocket 4.0 17:33:40 10° SSW 17:38:51 77° ESE 17:44:03 10° NNE
YAOGAN 1 3.9 17:36:17 10° ESE 17:39:22 19° ENE 17:42:28 10° NNE
Cosmos 1844 Rocket 3.7 17:35:07 10° SW 17:40:35 48° WNW 17:46:03 10° NNE
H-2A R/B 3.3 17:37:05 10° S 17:41:10 58° W 17:45:26 10° NNW
Cosmos 1689 Rocket 4.1 17:41:47 10° ENE 17:42:37 11° E 17:43:28 10° ESE
Aureole 3 Rocket 3.6 17:40:45 10° NNE 17:43:40 27° E 17:47:11 10° SE
Cosmos 1844 4.4 17:39:02 10° SW 17:44:35 55° WNW 17:50:16 10° NNE
COSMOS 2406 3.6 17:39:23 10° NNW 17:44:53 43° ENE 17:50:20 10° SE
Cosmos 2082 Rocket 3.3 17:40:30 10° N 17:44:59 23° NE 17:49:27 10° ESE
Cosmos 1703 3.2 17:42:42 10° S 17:46:32 65° E 17:50:24 10° NNE
X-37B 0.6 17:45:22 10° WNW 17:48:33 75° N 17:51:36 11° E
IRS-1C Rocket 4.5 17:43:52 10° SE 17:48:45 41° ENE 17:53:40 10° N
NOSS 3-1 (A) 4.2 17:41:30 10° NNW 17:48:52 58° NE 17:57:22 10° SE
ISS -2.0 17:48:34 10° WNW 17:51:14 21° N 17:53:50 10° NE
Cosmos 1812 Rocket 3.6 17:48:37 10° N 17:52:56 55° E 17:57:11 10° SSE
Okean O Rocket 2.2 17:50:09 10° S 17:54:32 63° WSW 17:58:56 10° NNW
Meteor 2-1 Rocket 4.5 17:49:16 10° NNW 17:54:47 73° W 18:00:15 10° S
CZ-4 R/B 2.0 17:55:17 10° SE 17:58:51 32° ENE 18:02:25 10° N
Iridium 4 Rocket 3.7 17:56:11 10° N 18:01:21 48° E 18:06:02 10° SSE
ERS-2 2.8 17:59:45 10° NNE 18:03:05 33° E 18:06:24 10° SSE
SKYMED 2 3.5 17:58:49 10° NNE 18:03:10 68° ESE 18:07:28 10° S
Okean-O 3.1 18:02:18 10° SE 18:06:21 37° ENE 18:10:26 10° N
Cosmos 1428 Rocket 4.5 18:03:06 10° S 18:09:19 67° E 18:15:36 10° NNE
Cosmos 1340 2.7 18:06:19 10° SSW 18:10:04 78° W 18:13:50 10° N
Cosmos 1346 Rocket 3.2 18:06:57 10° SSE 18:10:36 38° E 18:14:18 10° NNE
Cosmos 2278 Rocket 2.3 18:05:11 10° S 18:10:44 59° ESE 18:16:19 10° NNE
USA 234 4.5 18:05:52 10° NE 18:11:06 28° N 18:16:28 10° WNW
Cosmos 1953 Rocket 4.3 18:10:24 10° SSE 18:14:09 29° E 18:17:52 10° NNE
CZ-2C R/B 3.2 18:09:20 10° SSE 18:14:47 78° ENE 18:20:32 10° N
Cosmos 2292 Rocket 4.4 18:14:39 10° SSE 18:18:50 28° E 18:20:41 20° NE
Cosmos 44 Rocket 4.1 18:16:35 10° S 18:20:56 33° ESE 18:23:19 22° ENE
SAR-Lupe-4 3.9 18:17:50 11° NNE 18:21:02 43° E 18:24:28 10° S
Cosmos 405 2.9 18:19:35 10° N 18:23:08 89° W 18:26:38 10° S
ARGOS 3.4 18:23:23 10° SE 18:28:26 43° ENE 18:33:30 10° N
Meteor 2-19 Rocket 4.4 18:24:03 10° S 18:30:11 76° E 18:36:21 10° NNE
Cosmos 1869 4.5 18:27:56 10° NNE 18:30:11 24° NE 18:30:11 24° NE
Cosmos 372 Rocket 3.9 18:29:15 10° SSW 18:34:25 77° ESE 18:39:41 10° NNE
PSLV R/B 3.9 18:30:13 10° NNE 18:34:27 74° ESE 18:38:39 10° S
SAR-Lupe-1 3.9 18:34:04 14° NNE 18:37:08 72° ESE 18:40:42 10° S
CZ-4B R/B 3.1 18:34:58 10° N 18:37:58 33° WNW 18:40:53 10° SW
CZ-2D R/B 4.4 18:35:38 10° S 18:39:20 46° W 18:43:02 10° NNW
CZ-2C R/B 3.2 18:34:22 10° NNE 18:39:32 37° E 18:44:42 10° SSE
Cosmos 2150 Rocket 4.2 18:38:49 10° S 18:43:42 46° ESE 18:45:58 28° NE
MOS 1 Rocket 3.9 18:41:45 10° N 18:45:54 51° WNW 18:50:08 10° SSW
Cosmos 1048 Rocket 4.1 18:42:27 10° N 18:47:25 47° ENE 18:49:37 29° ESE
Cosmos-2242 3.2 18:43:32 10° NNW 18:47:50 72° W 18:52:08 10° S
COSMO-SKYMED 1 4.1 18:47:07 10° N 18:51:07 37° WNW 18:55:06 10° SW
Cosmos 2297 4.3 18:46:29 10° SSE 18:51:23 33° ESE 18:51:23 33° ESE
Cosmos 1758 Rocket 4.5 18:49:06 10° SSW 18:53:25 50° WNW 18:57:49 10° N
USA 290 3.5 18:53:06 10° NW 18:56:07 40° WSW 18:59:07 10° S
SL-08 RB Rocket 3.6 18:59:18 49° ESE 19:00:05 56° ENE 19:04:29 10° N
USA 276 4.1 18:57:26 10° SSW 18:58:53 20° S 18:58:53 20° S
CSL-04 Debris 4.0 18:56:50 10° SSE 19:02:13 83° ENE 19:07:38 10° NNW
Helios 1A Rocket 3.1 19:01:00 10° S 19:05:07 71° WSW 19:09:16 10° NNW
H-2A R/B 2.5 19:01:51 10° S 19:06:50 62° W 19:12:00 10° NNW
Cosmos 1125 Rocket 3.5 19:03:15 10° S 19:08:20 56° ESE 19:08:41 55° E
Cosmos 1809 Rocket 4.3 19:02:48 10° S 19:08:52 69° E 19:15:00 10° NNE
Cosmos 1833 Rocket 3.5 19:04:05 10° NW 19:09:29 50° WSW 19:14:52 10° S
Cosmos 2298 Rocket 3.9 19:05:39 10° SSW 19:10:57 87° ESE 19:13:35 31° NNE
Cosmos 2266 Rocket 3.8 19:06:52 10° S 19:13:02 67° E 19:19:08 10° NNE
Cosmos 1689 Rocket 4.0 19:13:25 26° WNW 19:13:42 27° WNW 19:16:11 10° SW
YAOGAN 1 3.8 19:11:04 10° S 19:15:10 42° W 19:19:18 10° NNW
In-Cosmos 22 Rocket 4.2 19:16:58 10° S 19:22:46 86° W 19:28:29 10° N
X-37B 2.8 19:22:06 10° W 19:23:54 26° WSW 19:23:54 26° WSW
Cosmos 1943 Rocket 3.8 19:21:41 10° S 19:23:18 19° SSE 19:23:18 19° SSE
ISS -1.1 19:25:51 10° NW 19:26:49 16° NW 19:26:49 16° NW
Cosmos 2082 Rocket 2.5 19:23:55 10° NNW 19:29:34 64° WSW 19:33:42 19° S
CZ-4 R/B 3.9 19:30:51 10° SW 19:33:55 21° W 19:36:59 10° NW
Meteor 2-21 4.4 19:32:34 10° S 19:38:39 82° W 19:44:49 10° N
NOSS 2-2 (E) 4.4 19:37:28 10° NW 19:43:13 78° NE 19:43:31 76° E
Meteor 2-14 Rocket 4.5 19:40:37 10° SSW 19:46:40 75° W 19:52:47 10° N
Cosmos 2315 Rocket 3.9 19:40:57 10° N 19:46:33 73° NNE 19:46:33 73° NNE
Cosmos 883 Rocket 4.4 19:41:48 10° N 19:48:00 80° W 19:50:12 43° S
ATLAS 2AS CENTAUR R/B 4.5 19:43:05 10° NNW 19:48:17 19° NNE 19:48:21 19° NNE
USA 234 4.2 19:53:13 33° NNE 19:53:13 33° NNE 19:58:41 10° NW
Cosmos 2278 Rocket 4.2 19:50:38 10° WSW 19:55:13 25° NW 19:59:05 13° N
CZ-4C R/B 4.4 19:53:26 10° NNW 19:56:58 20° N 19:56:58 20° N
CZ-2C R/B 4.2 20:15:10 12° N 20:19:43 34° WNW 20:24:42 10° SW
ATLAS 5 CENTAUR R/B 4.3 20:18:43 10° SSW 20:39:15 66° SSW 20:39:15 66° SSW
